Preview of NWS' New Version of Forecast
This preview is not operational and should not be used for support decisions.

Regional Weather Roundup (RWR)

Issued by National Weather Service (NWS)

                            
000
ASUS45 KBOI 251010
RWRID 

IDAHO REGIONAL WEATHER ROUNDUP
NATIONAL WEATHER SERVICE BOISE ID
400 AM MDT THU APR 25 2019

NOTE: "FAIR" INDICATES FEW OR NO CLOUDS BELOW 12000 FEET
WITH NO SIGNIFICANT WEATHER AND/OR OBSTRUCTIONS TO VISIBILITY

IDZ012-014-251100-
SOUTHWEST IDAHO

  
CITY           SKY/WX    TMP DP  RH WIND       PRES   REMARKS
BOISE          CLEAR     44  31  60 SE3       30.12S                  
CALDWELL       CLEAR     44  32  62 W6        30.13S                  
MOUNTAIN HOME  CLEAR     36  23  59 NW8       30.12R WCI  30          
$$

IDZ016-017-251100-
SOUTHCENTRAL IDAHO

  
CITY           SKY/WX    TMP DP  RH WIND       PRES   REMARKS
BURLEY         CLEAR     41  26  55 SW7       30.13R                  
JEROME         PTCLDY    44  28  53 S6        30.13R                  
TWIN FALLS     PTCLDY    44  29  55 S14       30.13S                  
$$

IDZ019>023-251100-
SOUTHEAST IDAHO

  
CITY           SKY/WX    TMP DP  RH WIND       PRES   REMARKS
IDAHO FALLS    CLEAR     34  29  82 NW5       30.16R WCI  30          
POCATELLO      CLEAR     45  27  49 SW10      30.15R                  
REXBURG        CLEAR     35  29  78 E5        30.16R WCI  31          
$$

IDZ006-010-011-018-031-032-251100-
CENTRAL IDAHO MOUNTAINS

  
CITY           SKY/WX    TMP DP  RH WIND       PRES   REMARKS
MCCALL         CLEAR     31  24  75 CALM      30.16S                  
HAILEY         CLEAR     39  27  60 NW14      30.18R WCI  31          
STANLEY          N/A     24  18  77 CALM      30.22S                  
SALMON         CLEAR     36  25  64 CALM      30.22R                  
CHALLIS        CLEAR     38  21  50 CALM      30.19S                  
$$

IDZ002-004-006-007-026-251100-
NORTHERN IDAHO

  
CITY           SKY/WX    TMP DP  RH WIND       PRES   REMARKS
LEWISTON       CLEAR     45  33  63 CALM      30.20R                  
LOWELL           N/A     39  37  92 NW6       30.28R WCI  35          
COEUR D'ALENE  CLEAR     36  31  82 NE6       30.21R WCI  31          
MULLAN PASS    CLEAR     34  18  52 NW3       30.19S                  
$$